Location: Praha
(50.0830°N, 14.4670°E)
Time: 05:10:23
(UTC+02:00)

ISS - Pass Details

Date: 29 March 2020
Orbit: 417 x 423 km, 51.6° (Epoch: 29 March)

Event Time Altitude Azimuth Distance (km) Brightness Sun altitude
Rises 21:43:15 0° 287° (WNW) 2,362 1.4 -20.7°
Reaches altitude 10° 21:45:21 10° 284° (WNW) 1,497 0.0 -21.0°
Enters shadow 21:48:12 55° 249° (WSW) 510 -3.3 -21.3°
